Date String (YYYY-MM-DD hh:mm:ss) UTC,Instrument flags,Ambient pressure (hPa),Sample flow (lpm),Bypass flow (lpm),Sample temperature (°C),Ambient temperature (°C),ASC tube jacket temperature (°C),LED temperature (°C),Box temperature (°C),Sample RH (%),Span deviation,Mass concentration (μg/m³),Mass concentration (μg/m³),Mass concentration (μg/m³)
DateTimeUTC,F1_M11,P_M11,Q1_M11,Q2_M11,T1_M11,T2_M11,T3_M11,T4_M11,T5_M11,U1_M11,ZSPAN_M11,X0_M11,X2_M11,X1_M11
2021-12-22 13:00:00,,0822.2,5.00,0.00,23.5,22.7,00.0,32.4,25.2,04.2,0000.0,0000.85,0000.34,0000.27
2021-12-22 13:01:00,,0822.3,5.00,0.00,23.5,22.7,00.0,32.4,25.2,04.3,0000.0,0000.51,0000.34,0000.27
2021-12-22 13:02:00,,0822.2,5.01,0.00,23.5,22.7,00.0,32.4,25.2,04.3,0000.0,0000.52,0000.34,0000.27
2021-12-22 13:03:00,,0822.2,5.01,0.00,23.5,22.7,00.0,32.4,25.2,04.3,0000.0,0000.51,0000.33,0000.27
2021-12-22 13:04:00,,0822.1,4.99,0.00,23.5,22.7,00.0,32.4,25.2,04.3,0000.0,0000.51,0000.33,0000.28
2021-12-22 13:05:00,,0822.3,4.99,0.00,23.5,22.7,00.0,32.4,25.2,04.4,0000.0,0000.52,0000.33,0000.28
2021-12-22 13:06:00,,0822.2,5.02,0.00,23.5,22.7,00.0,32.4,25.2,04.5,0000.0,0000.63,0000.35,0000.28
2021-12-22 13:07:00,,0822.2,4.99,0.00,23.5,22.7,00.0,32.4,25.2,04.5,0000.0,0000.64,0000.36,0000.27
2021-12-22 13:08:00,,0822.2,5.00,0.00,23.4,22.6,00.0,32.4,25.2,04.4,0000.0,0000.65,0000.36,0000.26
2021-12-22 13:09:00,,0822.2,5.00,0.00,23.4,22.6,00.0,32.4,25.1,04.4,0000.0,0000.59,0000.35,0000.27
2021-12-22 13:10:00,,0822.3,4.99,0.00,23.4,22.6,00.0,32.4,25.1,04.5,0000.0,0000.55,0000.34,0000.27
2021-12-22 13:11:00,,0822.4,5.01,0.00,23.4,22.6,00.0,32.4,25.1,04.5,0000.0,0000.73,0000.35,0000.28
2021-12-22 13:12:00,,0822.4,5.00,0.00,23.4,22.6,00.0,32.4,25.1,04.5,0000.0,0000.79,0000.36,0000.28
2021-12-22 13:13:00,,0822.2,5.00,0.00,23.4,22.6,00.0,32.4,25.1,04.6,0000.0,0000.80,0000.36,0000.28
2021-12-22 13:14:00,,0822.2,5.01,0.00,23.4,22.6,00.0,32.4,25.1,04.6,0000.0,0000.82,0000.36,0000.28
2021-12-22 13:15:00,,0822.1,4.99,0.00,23.4,22.6,00.0,32.4,25.1,04.7,0000.0,0000.83,0000.36,0000.27
2021-12-22 13:16:00,,0822.1,5.00,0.00,23.4,22.5,00.0,32.4,25.0,04.7,0000.0,0000.81,0000.36,0000.27
2021-12-22 13:17:00,,0822.3,5.00,0.00,23.4,22.5,00.0,32.4,25.1,04.6,0000.0,0000.72,0000.35,0000.27
2021-12-22 13:18:00,,0822.2,4.99,0.00,23.4,22.5,00.0,32.4,25.0,04.6,0000.0,0000.72,0000.35,0000.28
2021-12-22 13:19:00,,0822.2,5.01,0.00,23.4,22.5,00.0,32.4,25.0,04.7,0000.0,0000.71,0000.35,0000.28
2021-12-22 13:20:00,,0822.2,5.00,0.00,23.4,22.5,00.0,32.4,25.0,04.8,0000.0,0000.82,0000.36,0000.28
2021-12-22 13:21:00,,0822.2,5.00,0.00,23.3,22.4,00.0,32.4,24.9,04.8,0000.0,0000.87,0000.36,0000.27
2021-12-22 13:22:00,,0822.2,5.01,0.00,23.3,22.4,00.0,32.4,24.9,04.7,0000.0,0000.68,0000.36,0000.27
2021-12-22 13:23:00,,0822.3,5.01,0.00,23.3,22.4,00.0,32.4,24.9,04.8,0000.0,0000.61,0000.35,0000.27
2021-12-22 13:24:00,,0822.4,4.99,0.00,23.3,22.4,00.0,32.3,25.0,04.7,0000.0,0000.57,0000.34,0000.27
2021-12-22 13:25:00,,0822.2,5.01,0.00,23.3,22.4,00.0,32.3,25.0,04.7,0000.0,0000.55,0000.33,0000.27
2021-12-22 13:26:00,,0822.2,5.01,0.00,23.3,22.5,00.0,32.3,25.0,04.7,0000.0,0000.93,0000.34,0000.26
2021-12-22 13:27:00,,0822.3,4.99,0.00,23.3,22.5,00.0,32.3,25.0,04.7,0000.0,0001.10,0000.38,0000.27
2021-12-22 13:28:00,,0822.4,5.00,0.00,23.3,22.4,00.0,32.3,25.0,04.7,0000.0,0001.13,0000.39,0000.26
2021-12-22 13:29:00,,0822.3,5.00,0.00,23.3,22.4,00.0,32.3,25.0,04.7,0000.0,0001.19,0000.40,0000.25
2021-12-22 13:30:00,,0822.2,4.99,0.00,23.3,22.4,00.0,32.3,25.0,04.8,0000.0,0001.14,0000.38,0000.25
2021-12-22 13:31:00,,0822.2,5.01,0.00,23.3,22.5,00.0,32.3,25.0,04.8,0000.0,0001.03,0000.36,0000.25
2021-12-22 13:32:00,,0822.2,4.98,0.00,23.3,22.5,00.0,32.3,25.0,04.8,0000.0,0000.97,0000.35,0000.25
2021-12-22 13:33:00,,0822.1,5.01,0.00,23.3,22.5,00.0,32.3,25.0,04.8,0000.0,0001.03,0000.36,0000.24
2021-12-22 13:34:00,,0822.1,5.00,0.00,23.3,22.5,00.0,32.3,25.0,04.8,0000.0,0001.05,0000.36,0000.24
2021-12-22 13:35:00,,0822.0,4.99,0.00,23.3,22.5,00.0,32.3,24.9,04.8,0000.0,0001.45,0000.38,0000.25
2021-12-22 13:36:00,,0822.1,5.01,0.00,23.3,22.5,00.0,32.3,25.0,04.8,0000.0,0001.68,0000.38,0000.25
2021-12-22 13:37:00,,0822.1,5.01,0.00,23.3,22.5,00.0,32.3,25.0,04.9,0000.0,0001.26,0000.36,0000.24
2021-12-22 13:38:00,,0822.2,5.00,0.00,23.3,22.5,00.0,32.3,25.0,04.9,0000.0,0001.11,0000.32,0000.24
2021-12-22 13:39:00,,0822.2,4.99,0.00,23.3,22.5,00.0,32.3,25.0,04.7,0000.0,0001.08,0000.31,0000.24
2021-12-22 13:40:00,,0822.2,5.01,0.00,23.3,22.5,00.0,32.3,25.0,04.5,0000.0,0001.02,0000.29,0000.24
2021-12-22 13:41:00,,0822.1,5.00,0.00,23.3,22.5,00.0,32.3,25.0,04.6,0000.0,0001.02,0000.29,0000.24
2021-12-22 13:42:00,,0822.2,4.99,0.00,23.3,22.5,00.0,32.3,24.9,04.8,0000.0,0001.03,0000.30,0000.25
2021-12-22 13:43:00,,0822.2,5.00,0.00,23.3,22.4,00.0,32.3,24.9,04.7,0000.0,0001.02,0000.30,0000.25
2021-12-22 13:44:00,,0822.4,4.99,0.00,23.3,22.4,00.0,32.3,25.0,04.7,0000.0,0000.99,0000.30,0000.25
2021-12-22 13:45:00,,0822.2,4.99,0.00,23.3,22.4,00.0,32.3,25.0,04.8,0000.0,0001.00,0000.30,0000.25
2021-12-22 13:46:00,,0821.8,5.00,0.00,23.3,22.4,00.0,32.3,25.0,04.9,0000.0,0000.70,0000.30,0000.25
2021-12-22 13:47:00,,0821.8,5.01,0.00,23.3,22.4,00.0,32.3,25.0,04.9,0000.0,0000.43,0000.30,0000.25
2021-12-22 13:48:00,,0822.2,4.99,0.00,23.3,22.4,00.0,32.3,25.0,04.9,0000.0,0000.43,0000.30,0000.25
2021-12-22 13:49:00,,0822.2,5.00,0.00,23.3,22.4,00.0,32.3,24.9,04.9,0000.0,0000.42,0000.29,0000.24
2021-12-22 13:50:00,,0822.3,5.00,0.00,23.3,22.4,00.0,32.3,24.9,04.9,0000.0,0000.42,0000.29,0000.24
2021-12-22 13:51:00,,0822.3,5.01,0.00,23.3,22.4,00.0,32.3,24.9,04.9,0000.0,0000.47,0000.30,0000.24
2021-12-22 13:52:00,,0822.2,5.00,0.00,23.2,22.4,00.0,32.3,25.0,04.9,0000.0,0000.46,0000.30,0000.23
2021-12-22 13:53:00,,0822.2,5.00,0.00,23.2,22.4,00.0,32.3,25.0,04.9,0000.0,0000.47,0000.30,0000.23
2021-12-22 13:54:00,,0822.0,4.99,0.00,23.3,22.4,00.0,32.3,25.0,04.9,0000.0,0000.52,0000.32,0000.24
2021-12-22 13:55:00,,0821.8,5.01,0.00,23.3,22.5,00.0,32.3,25.0,04.9,0000.0,0000.66,0000.33,0000.24
2021-12-22 13:56:00,,0821.9,5.00,0.00,23.3,22.5,00.0,32.3,25.0,04.9,0000.0,0000.85,0000.33,0000.24
2021-12-22 13:57:00,,0822.0,5.00,0.00,23.3,22.5,00.0,32.3,25.0,04.9,0000.0,0000.86,0000.34,0000.24
2021-12-22 13:58:00,,0822.0,5.00,0.00,23.3,22.5,00.0,32.3,25.0,04.9,0000.0,0000.94,0000.37,0000.25
2021-12-22 13:59:00,,0821.9,5.01,0.00,23.3,22.5,00.0,32.3,25.0,04.9,0000.0,0001.01,0000.39,0000.25
